Miscellaneous Local Product
Issued by NWS Hastings, NE

Home | Current Version | Previous Version | Graphics & Text | Print | Product List | Glossary On
Versions: 1 2 3 4 5 6 7 8 9 10 11 12 13 14 15 16 17 18 19 20 21 22 23 24 25 26 27 28 29 30 31 32 33 34 35 36 37 38 39 40 41 42 43 44 45 46 47 48 49 50
000
AXUS43 KGID 270602
MISGRI

GID CWA HOURLY WEATHER ROUNDUP
NATIONAL WEATHER SERVICE HASTINGS NE
100 AM CDT WED MAY 27 2015

NOTE: "FAIR" INDICATES FEW OR NO CLOUDS BELOW 12,000 FEET WITH NO
SIGNIFICANT WEATHER AND/OR OBSTRUCTIONS TO VISIBILITY.

...SOUTH CENTRAL NEBRASKA...

CITY           SKY/WX    TMP DP  RH WIND       PRES   REMARKS
GRAND ISLAND   CLEAR     54  47  77 W8        30.00S
HASTINGS       CLEAR     56  48  74 SW3       30.01R
KEARNEY        CLEAR     57  48  72 W3        30.02S
ORD            CLEAR     55  48  77 CALM      29.98S
YORK           CLEAR     55  50  82 W8        29.99R
AURORA         CLEAR     53  49  89 W8        29.99S
LEXINGTON      CLEAR     50  48  92 CALM      30.03S
HOLDREGE       CLEAR     53  48  81 CALM      30.02S
HEBRON         CLEAR     56  50  81 W3        30.00R

...NEBRASKA PANHANDLE...

CITY           SKY/WX    TMP DP  RH WIND       PRES   REMARKS
CHADRON        CLOUDY    59  49  69 CALM      30.00S
ALLIANCE       MOCLDY    52  49  89 S9        30.03R
SCOTTSBLUFF    CLOUDY    56  51  84 SE5       30.04R
SIDNEY         CLEAR     51  48  89 S8        30.07R

...WESTERN AND NORTH CENTRAL NEBRASKA...

CITY           SKY/WX    TMP DP  RH WIND       PRES   REMARKS
VALENTINE      CLEAR     51  47  86 W3        30.01S
AINSWORTH      CLEAR     55  50  83 W6        30.01S
ONEILL         CLEAR     56  52  85 W5        29.98R
BROKEN BOW     CLEAR     54  48  80 CALM      30.01S
IMPERIAL       CLEAR     53  48  83 SE7       30.05R
NORTH PLATTE   PTCLDY    52  46  80 SE5       30.05R
MCCOOK         CLEAR     56  48  74 CALM      30.04R

...EASTERN NEBRASKA...

CITY           SKY/WX    TMP DP  RH WIND       PRES   REMARKS
NORFOLK        CLEAR     57  52  83 W8        29.95R
SO SIOUX CITY  PTCLDY    54  52  93 SW5       29.92R
TEKAMAH        PTCLDY    55  53  93 W5        29.93R
COLUMBUS         N/A    N/A N/A N/A MISG        N/A
ALBION         CLEAR     55  48  80 NW7       29.98R
OMAHA EPPLEY   CLEAR     58  54  86 CALM      29.94R
OFFUTT AFB     CLEAR     56  54  91 S1        29.93R
MILLARD        CLEAR     57  55  92 CALM      29.94R
LINCOLN        CLEAR     60  52  74 NW3       29.97R
NEBRASKA CITY  CLEAR     58  56  91 SW8       29.95R
BEATRICE       CLEAR     56  52  86 W5        29.98R
FALLS CITY     CLEAR     61  55  81 W9        29.94F

...NORTHERN KANSAS...

CITY           SKY/WX    TMP DP  RH WIND       PRES   REMARKS
GOODLAND       CLEAR     54  51  90 SE6       30.07R
HILL CITY      CLEAR     53  50  89 CALM      30.05R
NORTON         CLEAR     54  45  71 S3        30.04R
PHILLIPSBURG   CLEAR     55  55 100 CALM      30.04R
SMITH CENTER   CLEAR     54  50  87 NW5       30.03R
HAYS           CLEAR     55  48  76 N5        30.03S
RUSSELL        CLEAR     59  52  77 CALM      30.01S
CONCORDIA      CLEAR     58  52  80 W6        30.00S
SALINA         CLEAR     60  55  83 CALM      30.00R
TOPEKA         MOCLDY    64  59  83 SW3       29.98R



USA.gov is the U.S. government's official web portal to all federal, state and local government web resources and services.